EW4138 Weather Reports


time (UTC)temp
F
wind
direction
speed
knots
gust
knots
rain 1hr
in
rain 24hr
in
rain mn
in
humidity
%
barometer
mb
20260507191903 46 359 0.0 0.9 0.00 0.47 0.47 95 1016.1
20260507191403 46 359 0.0 0.9 0.00 0.47 0.47 95 1016.1
20260507190903 46 8 0.0 4.3 0.00 0.47 0.47 95 1016.0
20260507190403 46 7 0.0 4.3 0.00 0.47 0.47 95 1015.9
20260507190222 46 0 0.0 2.6 0.00 0.47 0.47 95 1015.9
20260507185358 46 356 0.0 0.0 0.00 0.47 0.47 95 1015.8
20260507184856 46 0 0.0 4.3 0.00 0.47 0.47 95 1015.8
20260507184350 46 1 0.0 4.3 0.00 0.47 0.47 95 1015.7
20260507183850 46 359 0.0 3.5 0.00 0.47 0.47 95 1015.6
20260507183338 46 1 0.9 5.2 0.00 0.47 0.47 95 1015.6
20260507183138 46 9 0.9 7.0 0.00 0.47 0.47 95 1015.5
20260507182335 46 0 0.9 7.0 0.01 0.47 0.47 95 1015.4
20260507181832 46 0 0.9 5.2 0.01 0.47 0.47 95 1015.4
20260507181331 46 321 0.0 2.6 0.01 0.47 0.47 95 1015.3
20260507180822 47 311 0.0 1.7 0.01 0.47 0.47 95 1015.3
20260507180319 46 338 0.0 2.6 0.01 0.47 0.47 95 1015.2
20260507175818 47 349 0.0 4.3 0.01 0.47 0.47 95 1015.2
20260507175614 46 353 0.0 4.3 0.01 0.47 0.47 95 1015.2
20260507174812 47 1 0.9 5.2 0.01 0.47 0.47 95 1015.2
20260507174313 47 3 0.9 5.2 0.01 0.47 0.47 95 1015.1
20260507173804 47 1 0.9 4.3 0.01 0.47 0.47 95 1015.1
20260507173608 47 1 0.9 4.3 0.01 0.47 0.47 95 1015.0
20260507172805 47 0 0.9 4.3 0.01 0.47 0.47 94 1015.0
20260507172307 47 7 0.9 4.3 0.00 0.46 0.46 94 1014.9
20260507172106 47 10 0.9 4.3 0.00 0.46 0.46 95 1014.9
20260507171558 47 334 0.9 3.5 0.00 0.46 0.46 95 1014.9
20260507170754 47 295 0.0 3.5 0.00 0.46 0.46 95 1014.9
20260507170553 47 15 0.9 5.2 0.00 0.46 0.46 95 1014.8
20260507165753 47 351 0.0 5.2 0.00 0.46 0.46 95 1014.8
20260507165252 47 357 0.0 0.0 0.01 0.46 0.46 95 1014.7
20260507164752 47 357 0.0 3.5 0.01 0.46 0.46 94 1014.7
20260507164243 47 357 0.0 4.3 0.01 0.46 0.46 94 1014.7
20260507163734 47 359 0.9 5.2 0.02 0.46 0.46 95 1014.6
20260507163233 47 331 1.7 7.0 0.02 0.46 0.46 95 1014.6
20260507162734 47 0 0.9 7.0 0.02 0.46 0.46 95 1014.6
20260507162226 47 9 0.9 6.1 0.02 0.46 0.46 95 1014.6
20260507161718 47 333 0.9 4.3 0.02 0.46 0.46 94 1014.4
20260507161218 47 1 0.9 5.2 0.02 0.46 0.46 94 1014.4
20260507160713 47 16 0.9 6.1 0.02 0.46 0.46 94 1014.4
20260507160208 47 359 0.9 6.1 0.02 0.46 0.46 94 1014.5
20260507155705 47 326 0.9 5.2 0.04 0.46 0.46 94 1014.5
20260507155206 47 0 0.9 5.2 0.03 0.46 0.46 94 1014.5
20260507154706 47 359 0.9 5.2 0.04 0.46 0.46 94 1014.4
20260507154201 47 359 0.9 5.2 0.05 0.46 0.46 94 1014.4
20260507153703 47 30 0.9 5.2 0.06 0.45 0.45 94 1014.4
20260507153202 47 357 0.9 5.2 0.06 0.45 0.45 94 1014.4
20260507152702 47 0 0.0 4.3 0.06 0.45 0.45 94 1014.4
20260507152203 47 0 0.9 4.3 0.05 0.44 0.44 94 1014.3
20260507151703 47 1 0.9 6.1 0.06 0.44 0.44 94 1014.4
20260507151158 47 12 0.9 6.1 0.06 0.44 0.44 94 1014.3
20260507150650 47 33 0.9 6.1 0.06 0.44 0.44 94 1014.3
20260507150140 47 0 0.9 5.2 0.06 0.44 0.43 94 1014.2
20260507145930 47 359 0.9 6.1 0.04 0.43 0.43 94 1014.3
20260507145132 47 29 0.9 6.1 0.04 0.43 0.42 94 1014.2
20260507144631 47 9 1.7 4.3 0.02 0.41 0.41 94 1014.1
20260507144130 47 21 0.9 4.3 0.02 0.41 0.40 94 1014.0
20260507143633 47 359 0.0 3.5 0.01 0.39 0.39 94 1014.0
20260507143131 47 6 0.0 3.5 0.01 0.39 0.39 93 1014.1
20260507142633 47 357 0.9 5.2 0.01 0.39 0.39 93 1014.0
20260507142134 47 349 0.9 5.2 0.01 0.39 0.39 93 1014.1
20260507141631 47 354 0.9 5.2 0.00 0.39 0.39 93 1014.1
20260507141442 47 285 0.9 5.2 0.00 0.39 0.39 93 1014.1
20260507140634 47 334 0.9 4.3 0.00 0.39 0.39 93 1014.1
20260507140131 47 15 0.0 4.3 0.00 0.39 0.39 93 1014.0
20260507135634 48 358 0.0 5.2 0.00 0.39 0.39 93 1014.0
20260507135430 48 345 0.0 5.2 0.00 0.39 0.39 92 1014.0
20260507134631 48 12 0.0 4.3 0.00 0.39 0.39 92 1013.9
20260507134132 48 356 0.0 4.3 0.00 0.39 0.39 92 1013.8
20260507133633 48 309 0.0 4.3 0.00 0.39 0.39 92 1013.8
20260507133135 48 328 0.0 4.3 0.00 0.39 0.39 92 1013.7
20260507132633 48 352 1.7 5.2 0.00 0.39 0.39 91 1013.7
20260507132136 48 346 2.6 7.8 0.00 0.39 0.39 91 1013.7
20260507131934 48 1 2.6 7.8 0.00 0.39 0.39 91 1013.7
20260507131132 48 16 1.7 7.0 0.00 0.39 0.39 91 1013.6
20260507130928 48 11 1.7 7.0 0.00 0.39 0.39 91 1013.5
20260507130131 48 23 1.7 7.0 0.00 0.39 0.39 91 1013.4
20260507125631 48 6 1.7 7.0 0.00 0.39 0.39 91 1013.4
20260507125123 49 356 1.7 5.2 0.00 0.39 0.39 90 1013.3
20260507124614 49 32 1.7 5.2 0.00 0.39 0.39 90 1013.2
20260507124106 49 58 2.6 7.0 0.00 0.39 0.39 89 1013.1
20260507123605 49 27 3.5 9.6 0.00 0.39 0.39 89 1013.0
20260507123148 49 89 2.6 9.6 0.00 0.39 0.39 90 1013.0
20260507122105 48 1 1.7 6.1 0.00 0.39 0.39 91 1013.0
20260507121604 48 60 2.6 7.8 0.00 0.39 0.39 91 1012.9
20260507121107 48 6 2.6 7.8 0.00 0.39 0.39 91 1012.9
20260507120604 48 41 0.9 7.0 0.00 0.39 0.39 91 1012.9
20260507120110 49 34 0.9 7.0 0.00 0.39 0.39 91 1012.9
20260507115554 49 6 2.6 7.8 0.00 0.39 0.39 91 1012.8
20260507115054 49 32 3.5 7.8 0.00 0.39 0.39 91 1012.7
20260507114852 49 9 1.7 7.0 0.00 0.39 0.39 91 1012.7
20260507114050 48 47 1.7 7.0 0.00 0.39 0.39 91 1012.7
20260507113545 49 1 2.6 7.0 0.00 0.39 0.39 91 1012.7
20260507113044 49 1 1.7 7.0 0.00 0.39 0.39 91 1012.7
20260507112544 49 13 1.7 6.1 0.00 0.39 0.39 91 1012.6
20260507112335 49 55 1.7 7.8 0.00 0.39 0.39 91 1012.6
20260507111535 49 54 0.9 7.8 0.00 0.39 0.39 92 1012.6
20260507111033 49 19 2.6 7.0 0.00 0.39 0.39 91 1012.6
20260507110836 49 1 3.5 8.7 0.00 0.39 0.39 91 1012.5
20260507110035 49 35 2.6 8.7 0.01 0.39 0.39 92 1012.6
20260507105533 49 53 1.7 7.0 0.01 0.39 0.39 92 1012.5
20260507105033 48 20 2.6 7.8 0.01 0.39 0.39 92 1012.4
20260507104819 48 356 2.6 8.7 0.01 0.39 0.39 92 1012.4
20260507104308 49 35 3.5 8.7 0.01 0.39 0.39 92 1012.4
20260507103505 49 32 3.5 7.8 0.01 0.39 0.39 92 1012.3
20260507103256 48 26 3.5 7.8 0.01 0.39 0.39 93 1012.3
20260507102254 48 18 2.6 6.1 0.01 0.39 0.39 94 1012.2
20260507101800 48 42 2.6 6.1 0.01 0.39 0.39 94 1012.2
20260507101004 47 352 2.6 6.1 0.01 0.39 0.39 93 1012.2
20260507100505 48 28 2.6 6.1 0.01 0.38 0.38 94 1012.2
20260507100008 48 31 1.7 6.1 0.02 0.38 0.38 94 1012.1
20260507095504 48 358 1.7 6.1 0.02 0.38 0.38 94 1012.1
20260507095257 48 13 1.7 7.0 0.04 0.38 0.38 94 1012.0
20260507094504 48 13 1.7 8.7 0.05 0.38 0.38 94 1012.0
20260507094000 48 6 1.7 7.0 0.05 0.38 0.38 94 1012.0
20260507093458 47 41 1.7 7.0 0.06 0.38 0.38 94 1011.9
20260507092959 47 359 1.7 7.0 0.06 0.38 0.38 95 1011.9
20260507092450 47 1 1.7 7.0 0.07 0.38 0.38 95 1011.9
20260507091942 47 29 0.9 4.3 0.08 0.38 0.38 95 1011.7
20260507091434 47 0 1.7 6.1 0.09 0.38 0.38 95 1011.7
20260507091231 47 8 1.7 6.1 0.09 0.38 0.38 95 1011.7
20260507090431 46 1 0.9 4.3 0.09 0.37 0.37 95 1011.6
20260507085930 46 37 0.9 5.2 0.09 0.36 0.36 95 1011.6
20260507085422 46 1 1.7 5.2 0.07 0.35 0.35 94 1011.5
20260507084912 46 1 1.7 6.1 0.06 0.34 0.34 95 1011.4
20260507084407 46 19 1.7 8.7 0.06 0.33 0.33 95 1011.3
20260507083906 46 13 1.7 8.7 0.06 0.33 0.33 95 1011.2
20260507083406 46 17 1.7 7.8 0.06 0.32 0.32 95 1011.2
20260507082906 46 335 1.7 7.0 0.06 0.31 0.31 95 1011.2
20260507082406 46 11 1.7 7.0 0.05 0.31 0.31 95 1011.1
20260507081905 46 314 1.7 7.0 0.05 0.30 0.30 95 1011.2
20260507081405 46 26 1.7 7.0 0.04 0.29 0.29 95 1011.1
20260507080905 46 347 0.9 5.2 0.03 0.28 0.28 95 1010.9
20260507080403 47 25 1.7 5.2 0.04 0.28 0.28 95 1010.8
20260507080208 47 41 1.7 4.3 0.03 0.28 0.28 95 1010.8
20260507075405 47 10 1.7 5.2 0.03 0.28 0.28 95 1010.7
20260507074903 47 38 1.7 5.2 0.03 0.28 0.27 95 1010.7
20260507074404 46 35 0.9 5.2 0.02 0.27 0.27 95 1010.7
20260507073902 47 26 1.7 7.8 0.02 0.27 0.27 95 1010.6
20260507073402 46 59 1.7 7.8 0.02 0.27 0.27 95 1010.6
20260507072906 47 44 0.0 4.3 0.02 0.27 0.26 95 1010.5
20260507072402 47 59 0.0 4.3 0.02 0.27 0.25 95 1010.5
20260507071905 47 2 0.0 4.3 0.01 0.26 0.25 95 1010.5
20260507071406 46 56 0.9 5.2 0.01 0.26 0.25 95 1010.4
20260507070905 46 51 1.7 5.2 0.01 0.26 0.25 95 1010.3
20260507070405 46 16 1.7 5.2 0.00 0.25 0.24 95 1010.3
20260507065903 46 3 1.7 5.2 0.00 0.25 0.24 95 1010.2
20260507065403 46 14 0.9 5.2 0.00 0.25 0.24 95 1010.2
20260507065203 46 20 0.9 5.2 0.00 0.25 0.24 95 1010.2
20260507064654 46 40 0.9 5.2 0.00 0.25 0.24 95 1010.1
20260507064202 46 21 0.9 5.2 0.00 0.25 0.24 95 1010.1
20260507063403 46 17 0.9 4.3 0.00 0.25 0.24 95 1010.0
20260507062903 46 30 0.9 5.2 0.00 0.25 0.24 95 1009.8
20260507062405 46 39 1.7 6.1 0.00 0.25 0.24 95 1009.8
20260507062159 46 359 1.7 7.0 0.00 0.25 0.24 95 1009.8
20260507061358 46 22 0.9 7.0 0.00 0.25 0.24 95 1009.8
20260507060852 46 1 0.9 5.2 0.00 0.25 0.24 95 1009.7
20260507060352 46 359 0.9 4.3 0.00 0.25 0.24 95 1009.8
20260507055851 46 353 0.9 6.1 0.00 0.25 0.24 95 1009.7
20260507055639 46 351 0.0 6.1 0.00 0.25 0.24 95 1009.6
20260507054834 46 4 0.9 6.1 0.00 0.25 0.24 95 1009.6
20260507054333 46 1 0.9 7.0 0.00 0.25 0.24 95 1009.6
20260507053833 46 0 0.9 7.0 0.00 0.25 0.24 95 1009.4
20260507053331 46 2 0.9 5.2 0.00 0.25 0.24 95 1009.4
20260507052831 46 0 0.0 5.2 0.00 0.25 0.24 95 1009.4
20260507052334 46 37 0.0 4.3 0.00 0.25 0.24 95 1009.4
20260507051837 46 1 0.9 5.2 0.00 0.25 0.24 95 1009.3
20260507051331 46 0 0.9 5.2 0.00 0.25 0.24 95 1009.4
20260507051130 46 356 0.9 4.3 0.00 0.25 0.24 95 1009.4
20260507050332 46 354 0.9 3.5 0.00 0.25 0.24 95 1009.3
20260507045832 46 343 0.0 5.2 0.00 0.25 0.24 95 1009.2
20260507045335 46 359 0.0 5.2 0.00 0.25 0.24 95 1009.2
20260507044831 46 30 0.9 4.3 0.00 0.25 0.24 95 1009.1
20260507044331 46 359 0.9 4.3 0.00 0.25 0.24 95 1009.1
20260507043833 46 12 0.9 5.2 0.00 0.25 0.24 95 1009.0
20260507043331 46 2 0.0 5.2 0.00 0.25 0.24 95 1008.9
20260507043133 46 25 0.9 5.2 0.00 0.25 0.24 95 1008.9
20260507042331 46 1 1.7 6.1 0.00 0.25 0.24 95 1008.8
20260507042139 47 1 0.9 6.1 0.00 0.25 0.24 95 1008.7
20260507041332 47 4 0.0 5.2 0.00 0.25 0.24 95 1008.7
20260507040832 47 347 0.0 3.5 0.00 0.25 0.24 95 1008.6
20260507040620 47 8 0.0 0.9 0.00 0.25 0.24 95 1008.5
20260507035831 47 16 0.0 3.5 0.01 0.25 0.24 95 1008.5
20260507035627 47 16 0.9 4.3 0.01 0.25 0.24 95 1008.4
20260507034913 47 11 0.9 4.3 0.01 0.25 0.24 95 1008.3
20260507033834 47 359 0.9 7.0 0.01 0.25 0.24 95 1008.2
20260507033334 47 1 0.0 4.3 0.02 0.25 0.24 95 1008.2
20260507032834 47 8 0.0 4.3 0.02 0.25 0.24 95 1008.2
20260507032333 47 30 0.9 4.3 0.02 0.25 0.24 95 1008.1
20260507031833 47 354 0.9 4.3 0.03 0.25 0.24 95 1008.1
20260507031334 47 4 1.7 7.8 0.04 0.25 0.24 95 1008.0
20260507030834 47 5 1.7 7.8 0.05 0.25 0.24 95 1008.0
20260507030334 47 359 0.9 7.0 0.05 0.25 0.24 95 1008.0
20260507025824 47 1 0.9 5.2 0.05 0.24 0.24 95 1008.0
20260507025324 47 46 0.9 4.3 0.06 0.24 0.24 95 1007.9
20260507024822 47 67 1.7 6.1 0.06 0.24 0.24 94 1007.9
20260507024322 47 338 1.7 7.8 0.08 0.24 0.24 94 1007.8
20260507024118 47 353 1.7 7.8 0.09 0.24 0.24 94 1007.7
20260507023320 47 0 1.7 6.1 0.09 0.24 0.23 94 1007.6
20260507022820 47 8 2.6 7.0 0.10 0.23 0.22 94 1007.5
20260507022318 47 25 3.5 7.8 0.11 0.23 0.22 94 1007.4
20260507022126 47 22 2.6 7.8 0.12 0.22 0.21 94 1007.5
20260507021307 47 27 1.7 7.0 0.13 0.21 0.20 94 1007.5
20260507020806 47 6 2.6 7.8 0.13 0.20 0.20 94 1007.4
20260507020307 47 20 3.5 7.8 0.13 0.20 0.19 94 1007.5
20260507015805 47 39 2.6 7.0 0.13 0.20 0.18 94 1007.5
20260507015307 47 0 1.7 7.8 0.11 0.18 0.17 94 1007.5
20260507014804 47 25 1.7 7.8 0.12 0.18 0.17 94 1007.5
20260507014303 47 34 1.7 7.0 0.11 0.17 0.15 94 1007.6
20260507013803 47 4 1.7 6.1 0.09 0.15 0.14 94 1007.6
20260507013306 47 31 1.7 7.0 0.09 0.14 0.13 94 1007.6
20260507012805 47 15 1.7 7.0 0.09 0.13 0.12 94 1007.6
20260507012306 47 0 2.6 7.0 0.08 0.12 0.11 94 1007.5
20260507011805 48 32 1.7 7.0 0.07 0.10 0.09 93 1007.5
20260507011304 48 10 2.6 7.0 0.06 0.09 0.08 93 1007.5
20260507010806 48 1 2.6 7.0 0.06 0.08 0.07 94 1007.5
20260507010303 48 30 2.6 6.1 0.06 0.07 0.06 93 1007.5
20260507005806 48 4 1.7 6.1 0.06 0.07 0.06 93 1007.5
20260507005305 48 10 0.9 6.1 0.06 0.07 0.06 93 1007.5
20260507005058 48 1 0.9 6.1 0.06 0.07 0.06 93 1007.6
20260507004250 48 25 0.9 6.1 0.05 0.06 0.05 93 1007.5
20260507003748 48 28 0.9 6.1 0.05 0.06 0.05 93 1007.5
20260507003247 48 29 1.7 6.1 0.04 0.06 0.04 92 1007.6
20260507002745 48 4 0.9 5.2 0.03 0.05 0.03 92 1007.6
20260507002244 48 1 0.9 5.2 0.03 0.06 0.03 92 1007.5
20260507001743 49 44 0.9 5.2 0.02 0.05 0.02 92 1007.5
20260507001244 49 1 1.7 5.2 0.02 0.05 0.02 91 1007.6
20260507000740 49 9 0.9 4.3 0.02 0.05 0.01 91 1007.5
20260507000234 49 352 0.9 6.1 0.01 0.05 0.01 91 1007.6
20260506235732 49 358 0.9 6.1 0.00 0.06 0.00 90 1007.5
20260506235528 50 357 0.9 5.2 0.00 0.08 0.00 90 1007.5
20260506235031 50 12 0.0 3.5 0.00 0.09 0.00 90 1007.5
20260506234226 50 12 0.9 3.5 0.00 0.10 0.00 90 1007.5
20260506233717 50 23 0.9 4.3 0.00 0.13 0.00 90 1007.4
20260506233207 50 346 0.9 5.2 0.00 0.14 0.00 90 1007.3
20260506232957 50 359 0.9 5.2 0.00 0.17 0.00 90 1007.3
20260506232459 50 34 0.9 5.2 0.00 0.18 0.00 90 1007.3
20260506231705 50 1 0.9 6.1 0.00 0.20 0.00 90 1007.2
20260506231206 50 340 1.7 7.8 0.00 0.20 0.00 90 1007.2
20260506230947 50 8 1.7 7.8 0.00 0.25 0.00 90 1007.2
20260506230150 50 356 0.9 7.0 0.00 0.30 0.00 90 1007.3
20260506225650 50 1 0.9 6.1 0.00 0.31 0.00 90 1007.2
20260506225140 51 1 1.7 6.1 0.00 0.31 0.00 90 1007.1
20260506224633 50 35 1.7 6.1 0.00 0.31 0.00 90 1007.1
20260506224132 50 39 2.6 8.7 0.00 0.31 0.00 90 1007.2
20260506223626 50 43 3.5 8.7 0.00 0.31 0.00 90 1007.2
20260506223110 50 44 3.5 9.6 0.00 0.32 0.00 90 1007.0
20260506222606 51 41 3.5 9.6 0.00 0.32 0.00 90 1007.0
20260506222105 51 56 2.6 7.8 0.00 0.32 0.00 90 1007.0
20260506221605 51 53 2.6 7.8 0.00 0.32 0.00 90 1007.0
20260506221400 51 31 1.7 7.8 0.00 0.32 0.00 90 1007.0
20260506220606 51 72 0.9 6.1 0.00 0.32 0.00 90 1006.9
20260506220358 51 31 0.9 5.2 0.00 0.33 0.00 90 1007.0
20260506215558 51 33 1.7 5.2 0.00 0.34 0.33 90 1007.0
20260506215054 51 33 1.7 7.0 0.00 0.35 0.33 90 1006.8
20260506214555 51 0 1.7 7.0 0.00 0.36 0.33 89 1006.8
20260506214052 51 34 1.7 6.1 0.00 0.40 0.33 90 1006.6
20260506213552 52 306 1.7 6.1 0.00 0.51 0.33 90 1006.6
20260506213052 52 15 0.9 6.1 0.00 0.53 0.33 89 1006.6
20260506212550 52 359 0.9 6.1 0.00 0.53 0.33 89 1006.6
20260506212050 52 20 0.9 6.1 0.00 0.54 0.33 89 1006.5
20260506211850 52 2 0.9 7.0 0.00 0.55 0.33 89 1006.5
20260506211355 52 1 0.9 7.0 0.00 0.55 0.33 89 1006.4
20260506210538 52 48 1.7 7.0 0.00 0.55 0.33 89 1006.4
20260506210039 52 15 1.7 7.0 0.00 0.55 0.33 89 1006.4
20260506205538 53 14 0.9 5.2 0.00 0.55 0.33 89 1006.2
20260506205033 53 358 0.9 7.0 0.00 0.55 0.33 89 1006.3
20260506204531 53 0 1.7 7.0 0.00 0.55 0.33 89 1006.3
20260506204033 53 1 2.6 8.7 0.00 0.55 0.33 88 1006.3
20260506203531 53 1 2.6 8.7 0.00 0.55 0.33 88 1006.3
20260506203031 53 0 1.7 6.1 0.00 0.55 0.33 89 1006.3
20260506202836 53 0 1.7 5.2 0.00 0.55 0.33 89 1006.3
20260506202326 53 27 2.6 7.0 0.00 0.55 0.33 89 1006.4
20260506201533 53 27 1.7 7.0 0.00 0.55 0.33 88 1006.4
20260506201022 54 50 1.7 7.0 0.00 0.55 0.33 88 1006.4
20260506200514 54 56 1.7 6.1 0.00 0.55 0.33 88 1006.4
20260506200308 54 342 1.7 6.1 0.00 0.55 0.33 88 1006.3
20260506195801 54 307 1.7 6.1 0.00 0.55 0.33 89 1006.4
20260506194951 54 34 0.9 6.1 0.00 0.55 0.33 89 1006.0
20260506194450 54 18 0.9 5.2 0.00 0.55 0.33 89 1005.9
20260506193952 54 23 0.9 4.3 0.00 0.55 0.33 89 1005.8
20260506193445 54 1 0.0 4.3 0.00 0.55 0.33 89 1005.8
20260506192939 54 0 0.9 6.1 0.00 0.55 0.33 89 1005.8
20260506192439 54 340 0.9 6.1 0.00 0.55 0.33 89 1005.8
20260506192239 54 359 0.9 6.1 0.00 0.55 0.33 89 1005.7